Regional Weather Roundup
Issued by NWS Jackson, KY

Home | Current Version | Previous Version | Graphics & Text | Print | Product List | Glossary On
Versions: 1 2 3 4 5 6 7 8 9 10 11 12 13 14 15 16 17 18 19 20 21 22 23 24 25 26 27 28 29 30 31 32 33 34 35 36 37 38 39 40 41 42 43 44 45 46 47 48 49 50
000
ASUS43 KJKL 060310
RWRJKL

EAST KENTUCKY HOURLY WEATHER ROUNDUP
NATIONAL WEATHER SERVICE JACKSON KY
1100 PM EDT TUE MAY 05 2015

NOTE: "FAIR" INDICATES FEW OR NO CLOUDS BELOW 12,000 FEET WITH
NO SIGNIFICANT WEATHER AND/OR OBSTRUCTIONS TO VISIBILITY.

* THESE REPORTS ARE NOT UNDER NWS QUALITY CONTROL AND MAY NOT
  REPORT WEATHER SUCH AS PRECIPITATION AND FOG.

KYZ079-080-083-085-087-088-110-112-115-119-120-060400
...EASTERN KENTUCKY...

CITY           SKY/WX    TMP DP  RH WIND       PRES   REMARKS
JACKSON        CLEAR     73  50  44 CALM      30.25R
LONDON         CLEAR     65  54  67 CALM      30.24R
SOMERSET*      CLEAR     63  54  72 CALM      30.25R
MONTICELLO*    CLEAR     61  56  83 CALM      30.26R
MIDDLESBORO*   CLEAR     62  55  79 CALM      30.26R
HARLAN APT*    CLEAR     63  54  72 CALM      30.27R
HAZARD APT*    CLEAR     66  55  68 CALM      30.25R
BLACK MTN*       N/A     63  50  63 SE1         N/A
PIKEVILLE APT* CLEAR     73  54  49 CALM      30.25R
BIG SANDY*     CLEAR     67  56  67 CALM      30.24R
MOREHEAD APT*  CLEAR     68  54  60 CALM      30.25S
$$

KYZ035-036-041-042-044-050-067-078-099-060400
...CENTRAL KENTUCKY...

CITY           SKY/WX    TMP DP  RH WIND       PRES   REMARKS
MT STERLING*   CLEAR     63  59  88 CALM      30.24S
FLEMING/MASON* CLEAR     70  54  56 S5        30.23S
DANVILLE*      CLEAR     61  55  82 CALM      30.24R
RICHMOND*      CLEAR     68  54  60 SE3       30.23R
LEXINGTON      CLEAR     65  56  72 S3        30.23R
FRANKFORT      CLEAR     63  54  72 CALM      30.20R
$$

KYZ091>093-OHZ055-061-077-WVZ005-015-034-035-042-060400
...SOUTHERN OHIO/WEST VIRGINIA...

CITY           SKY/WX    TMP DP  RH WIND       PRES   REMARKS
COVINGTON      CLEAR     69  53  56 S3        30.21R
COLUMBUS       PTCLDY    68  56  65 CALM      30.19S
DAYTON         PTCLDY    70  54  56 SW6       30.21R
WILMINGTON     CLEAR     66  52  60 CALM      30.21S
HUNTINGTON     CLEAR     66  56  70 CALM      30.21R
CHARLESTON     CLEAR     66  56  70 CALM      30.22R
PINEVILLE*     PTCLDY    60  58  92 MISG      30.32S
BECKLEY        PTCLDY    64  50  60 CALM      30.30S
BLUEFIELD      PTCLDY    68  48  48 SE3       30.32S
$$

VAZ002-007-008-TNZ017-027-036-066-071-060400
...SOUTHWEST VIRGINIA/EAST TENNESSEE...

CITY           SKY/WX    TMP DP  RH WIND       PRES   REMARKS
WISE*          CLEAR     64  46  52 CALM      30.32S
JONESVILLE*    MOCLDY    61  55  82 N6        30.28R
ABINGDON*      PTCLDY    66  55  68 CALM      30.29R
BRISTOL        CLOUDY    72  53  51 CALM      30.26S
KNOXVILLE      CLOUDY    70  57  63 S10       30.23R
OAK RIDGE      MOCLDY    74  56  53 CALM      30.25R
CROSSVILLE     CLOUDY    64  53  67 CALM      30.28R
NASHVILLE      CLEAR     69  56  62 S5        30.21R
$$

...KEY TO REMARKS...
VSB - VISIBILITY IN MILES
WCI - WIND CHILL INDEX
HX  - HEAT INDEX

$$


USA.gov is the U.S. government's official web portal to all federal, state and local government web resources and services.